Weather History for Pompano Beach, FL

Change the Weather History Date:

Thursday, May 2, 2013

  Actual Average Record
Temperature  
Mean Temperature 72 °F -  
Max Temperature 79 °F 85 °F 92 °F (1981)
Min Temperature 66 °F 68 °F 57 °F (1999)
Cooling Degree Days 8    
Growing Degree Days 22 (Base 50)    
Moisture  
Dew Point 70 °F    
Average Humidity 92    
Maximum Humidity 100    
Minimum Humidity 73    
Precipitation  
Precipitation 5.79 in - - ()
Sea Level Pressure  
Sea Level Pressure 29.88 in    
Wind  
Wind Speed 11 mph (ENE)    
Max Wind Speed 22 mph    
Max Gust Speed 32 mph    
Visibility 5 miles    
Events Fog , Rain    
Averages and records for this station are not official NWS values.
T = Trace of Precipitation, MM = Missing Value Source: NWS Daily Summary

Daily Weather History Graph

Daily Weather History Graph

Search for Another Location

Airport:

Trip Planner

Search our weather history database for the weather conditions in past years. The results will help you decide how hot, cold, wet, or windy it might be!

Date:

Astronomy

May. 02, 2013 Rise Set
Actual Time 6:42 AM EDT 7:53 PM EDT
Civil Twilight 6:17 AM EDT 8:17 PM EDT
Nautical Twilight 5:48 AM EDT 8:46 PM EDT
Astronomical Twilight 5:18 AM EDT 9:16 PM EDT
Moon 1:45 AM EDT (5/2) 1:20 PM EDT (5/2)
Length of Visible Light 13h 59m
Length of Day
13h 10m
Waning Gibbous, 48% of the Moon is Illuminated
May 2
Waning Gibbous
May 9
New
May 18
First Quarter
May 25
Full
May 31
Last Quarter

Hourly Weather History & Observations

Time (EDT) Temp. Dew Point Humidity Pressure Visibility Wind Dir Wind Speed Gust Speed Precip Events Conditions
12:53 AM 75.9 °F 70.0 °F 82% 29.94 in 10.0 mi ESE 6.9 mph - N/A   Mostly Cloudy
1:53 AM 75.0 °F 66.0 °F 73% 29.92 in 10.0 mi ESE 11.5 mph - N/A   Partly Cloudy
2:53 AM 75.9 °F 68.0 °F 76% 29.92 in 10.0 mi ESE 8.1 mph - N/A   Mostly Cloudy
3:53 AM 77.0 °F 70.0 °F 79% 29.91 in 10.0 mi SE 5.8 mph - N/A   Overcast
4:53 AM 77.0 °F 69.1 °F 76% 29.90 in 10.0 mi SSE 3.5 mph - N/A   Scattered Clouds
5:53 AM 75.9 °F 69.1 °F 79% 29.90 in 10.0 mi SE 8.1 mph - N/A   Scattered Clouds
6:53 AM 73.0 °F 71.1 °F 93% 29.91 in 10.0 mi SSE 8.1 mph - N/A   Partly Cloudy
7:53 AM 75.0 °F 71.1 °F 87% 29.92 in 10.0 mi SE 5.8 mph - N/A   Mostly Cloudy
8:53 AM 77.0 °F 73.0 °F 88% 29.93 in 10.0 mi SSE 9.2 mph - N/A   Mostly Cloudy
9:25 AM 77.0 °F 73.4 °F 89% 29.91 in 10.0 mi ESE 11.5 mph - N/A   Mostly Cloudy
10:00 AM 78.8 °F 71.6 °F 78% 29.92 in 10.0 mi ESE 15.0 mph - N/A   Overcast
10:18 AM 77.0 °F 73.4 °F 89% 29.92 in 1.8 mi ESE 16.1 mph - 0.12 in Rain Heavy Rain
10:25 AM 75.2 °F 75.2 °F 100% 29.92 in 5.0 mi ESE 10.4 mph - 0.35 in Rain Heavy Rain
10:53 AM 77.0 °F 73.0 °F 88% 29.92 in 10.0 mi SSE 13.8 mph - 0.56 in   Overcast
11:05 AM 78.8 °F 71.6 °F 78% 29.91 in 10.0 mi SSE 15.0 mph - N/A   Overcast
11:53 AM 79.0 °F 73.0 °F 82% 29.90 in 10.0 mi SSE 13.8 mph - 0.02 in   Overcast
12:19 PM 77.0 °F 71.6 °F 83% 29.89 in 10.0 mi SE 12.7 mph - 0.02 in Rain Light Rain
12:39 PM 78.8 °F 71.6 °F 78% 29.89 in 10.0 mi SSE 16.1 mph - 0.02 in   Overcast
12:53 PM 79.0 °F 72.0 °F 79% 29.88 in 10.0 mi SSE 12.7 mph 20.7 mph 0.02 in   Overcast
12:58 PM 77.0 °F 71.6 °F 83% 29.90 in 1.2 mi South 20.7 mph 31.1 mph 0.18 in   Haze
1:00 PM 73.4 °F 71.6 °F 94% 29.90 in 0.5 mi South 16.1 mph 31.1 mph 0.31 in Fog , Rain Heavy Rain
1:09 PM 71.6 °F 71.6 °F 100% 29.89 in 0.5 mi East 12.7 mph - 0.53 in Fog , Rain Light Rain
1:11 PM 71.6 °F 71.6 °F 100% 29.89 in 1.0 mi East 11.5 mph - 0.53 in Rain Light Rain
1:19 PM 73.4 °F 71.6 °F 94% 29.89 in 10.0 mi ESE 5.8 mph - 0.53 in   Overcast
1:53 PM 70.0 °F 68.0 °F 93% 29.89 in 10.0 mi NNE 11.5 mph 23.0 mph 0.53 in   Mostly Cloudy
2:16 PM 69.8 °F 66.2 °F 88% 29.90 in 1.5 mi NE 12.7 mph - 0.16 in Rain Heavy Rain
2:21 PM 68.0 °F 66.2 °F 94% 29.89 in 0.5 mi North 10.4 mph - 0.33 in Fog , Rain Heavy Rain
2:39 PM 68.0 °F 68.0 °F 100% 29.88 in 0.5 mi NNE 16.1 mph - 1.16 in Fog , Rain Heavy Rain
2:53 PM 69.1 °F 69.1 °F 100% 29.88 in 0.5 mi NNE 16.1 mph - 1.90 in Fog , Rain Heavy Rain
3:02 PM 69.8 °F 69.8 °F 100% 29.90 in 0.8 mi NE 8.1 mph - 0.24 in Rain Heavy Rain
3:08 PM 69.8 °F 69.8 °F 100% 29.90 in 0.5 mi Variable 6.9 mph - 0.43 in Fog , Rain Heavy Rain
3:20 PM 69.8 °F 69.8 °F 100% 29.87 in 1.0 mi North 12.7 mph 27.6 mph 0.64 in Rain Heavy Rain
3:24 PM 69.8 °F 69.8 °F 100% 29.88 in 2.5 mi NNE 12.7 mph 23.0 mph 0.65 in Rain Rain
3:31 PM 69.8 °F 69.8 °F 100% 29.87 in 6.0 mi NE 8.1 mph - 0.65 in Rain Light Rain
3:53 PM 69.1 °F 69.1 °F 100% 29.88 in 2.5 mi North 8.1 mph - 0.72 in Rain Rain
4:00 PM 69.8 °F 69.8 °F 100% 29.87 in 4.0 mi NNE 5.8 mph - 0.01 in Rain Rain
4:10 PM 69.8 °F 69.8 °F 100% 29.88 in 1.5 mi North 5.8 mph - 0.11 in Rain Heavy Rain
4:15 PM 69.8 °F 69.8 °F 100% 29.88 in 0.5 mi North 6.9 mph - 0.30 in Fog , Rain Heavy Rain
4:22 PM 68.0 °F 68.0 °F 100% 29.87 in 0.5 mi NW 16.1 mph - 0.52 in Fog , Rain Heavy Rain
4:34 PM 69.8 °F 69.8 °F 100% 29.87 in 0.8 mi NW 20.7 mph - 0.74 in Rain Heavy Rain
4:46 PM 66.2 °F 66.2 °F 100% 29.87 in 0.5 mi NW 17.3 mph - 1.07 in Fog , Rain Heavy Rain
4:53 PM 68.0 °F 68.0 °F 100% 29.87 in 0.5 mi North 11.5 mph - 1.21 in Fog , Rain Heavy Rain
5:07 PM 68.0 °F 68.0 °F 100% 29.85 in 0.8 mi NNE 12.7 mph - 0.35 in Rain Heavy Rain
5:14 PM 68.0 °F 68.0 °F 100% 29.86 in 2.0 mi NE 12.7 mph - 0.38 in Rain Heavy Rain
5:20 PM 68.0 °F 68.0 °F 100% 29.87 in 3.0 mi NE 10.4 mph - 0.40 in Rain Rain
5:36 PM 69.8 °F 69.8 °F 100% 29.87 in 2.0 mi NW 9.2 mph - 0.46 in Rain Heavy Rain
5:38 PM 69.8 °F 69.8 °F 100% 29.86 in 1.5 mi WNW 9.2 mph - 0.48 in Rain Heavy Rain
5:53 PM 70.0 °F 70.0 °F 100% 29.87 in 2.5 mi NE 13.8 mph - 0.54 in Rain Rain
6:12 PM 69.8 °F 69.8 °F 100% 29.86 in 2.0 mi ENE 19.6 mph 27.6 mph 0.09 in Rain Heavy Rain
6:23 PM 69.8 °F 69.8 °F 100% 29.85 in 2.5 mi ENE 16.1 mph - 0.15 in Rain Heavy Rain
6:38 PM 69.8 °F - N/A% 29.84 in 3.0 mi ENE 18.4 mph 27.6 mph 0.20 in Rain Rain
6:53 PM 70.0 °F - N/A% 29.83 in 5.0 mi ENE 21.9 mph 29.9 mph 0.23 in Rain Light Rain
7:53 PM 71.1 °F - N/A% 29.80 in 7.0 mi ENE 21.9 mph 32.2 mph 0.05 in Rain Light Rain
8:53 PM 72.0 °F - N/A% 29.81 in 10.0 mi ENE 19.6 mph 29.9 mph 0.01 in   Scattered Clouds
9:53 PM 73.0 °F - N/A% 29.83 in 10.0 mi ENE 19.6 mph 28.8 mph N/A   Partly Cloudy
10:33 PM 73.4 °F - N/A% 29.84 in 10.0 mi ENE 12.7 mph - N/A   Mostly Cloudy
10:53 PM 73.9 °F - N/A% 29.84 in 10.0 mi ENE 16.1 mph - N/A   Mostly Cloudy
11:53 PM 75.0 °F 73.0 °F 94% 29.82 in 10.0 mi East 17.3 mph 23.0 mph N/A   Overcast